Location: Unspecified
(0.0000°N, 0.0000°E)
Time: 09:45:15
(UTC+00:00)

Transit 4A - Pass Details

Date: 20 December 2018
Orbit: 864 x 981 km, 66.8° (Epoch: 23 March)

Event Time Altitude Azimuth Distance (km) Brightness Sun altitude
Rises 00:54:30 0° 204° (SSW) 3,493 - -62.8°
Reaches altitude 10° 00:57:01 10° 207° (SSW) 2,538 - -62.5°
Maximum altitude 01:02:50 69° 289° (WNW) 926 - -61.7°
Drops below altitude 10° 01:08:32 10° 12° (NNE) 2,493 - -60.9°
Sets 01:11:00 0° 15° (NNE) 3,427 - -60.5°
